CAPE
1 1 1 1 0 0 0 0 1 0 0 0 0 0 0 0 0 0 0 0 0 0 1079 168 56 0 110 127 162 186 104 85 83 107 200 292 293 209 158 121 80 41 20 24 129
1 1 0 0 1 0 0 0 0 0 0 0 0 0 0 0 0 0 0 0 0 281 315 84 219 463 100 75 42 81 82 88 143 96 156 273 326 237 162 101 67 89 125 67 132
1 1 1 1 0 0 0 0 0 0 0 0 0 0 0 0 0 0 0 2 272 392 634 589 589 100 79 123 41 37 66 72 67 220 273 276 362 314 207 107 69 90 115 119 48
1 1 1 1 0 0 0 0 0 0 0 0 0 0 0 0 0 0 0 265 758 413 488 773 393 15 16 23 46 73 53 29 55 122 411 375 374 189 279 230 83 125 154 122 14
1 1 1 1 1 0 0 0 0 0 0 0 0 0 0 0 0 0 0 514 729 606 620 615 520 98 7 8 42 42 62 109 104 91 317 310 327 354 210 140 36 65 148 103 23
0 0 1 1 1 0 0 0 0 0 0 0 0 0 0 0 0 14 96 876 1075 682 663 351 417 124 49 66 83 112 80 157 450 208 307 321 391 334 100 27 6 50 101 95 72
0 0 0 0 0 0 0 0 0 0 0 0 0 0 0 0 7 1 0 716 831 289 326 76 94 91 291 215 136 135 126 298 601 495 441 348 181 109 68 0 1 54 99 75 87
0 0 0 0 0 0 0 0 0 0 0 0 0 0 0 0 471 114 112 411 595 309 531 487 294 236 432 214 32 31 120 297 478 549 318 121 81 121 48 0 3 4 24 32 74
0 0 0 0 0 0 0 0 0 0 0 0 0 0 0 0 0 56 418 209 219 102 213 243 483 486 21 30 0 1 4 120 436 433 343 311 308 176 50 0 0 2 10 14 36
0 0 0 0 0 0 0 0 0 0 0 0 0 0 0 0 0 8 82 0 0 0 0 4 438 506 152 77 0 0 0 0 184 352 427 398 397 319 67 0 0 0 0 2 5
0 0 0 0 0 0 0 0 0 0 0 0 0 0 0 0 0 0 0 0 241 88 254 479 410 118 105 114 71 47 0 0 0 99 487 463 395 281 204 45 0 0 0 0 2
0 0 0 0 0 0 0 0 0 0 0 0 0 0 0 0 0 0 0 2 94 138 404 296 110 81 122 51 12 8 0 0 0 63 439 508 262 465 433 238 59 0 0 0 0
0 0 0 0 0 0 0 0 0 0 0 0 0 0 0 0 0 0 0 8 217 368 272 247 97 71 28 2 0 0 0 0 0 361 436 459 366 473 582 575 255 20 0 0 0
0 0 0 0 0 0 0 0 0 0 0 0 0 0 0 0 0 0 0 48 227 275 199 134 60 0 0 0 0 0 0 0 24 212 233 403 152 417 567 570 584 448 27 0 0
0 0 0 0 0 0 0 0 0 0 0 0 0 0 0 0 0 0 102 0 0 29 0 0 0 0 0 0 0 0 0 0 209 177 348 391 355 276 434 482 573 662 492 35 0
1 0 0 0 0 0 0 0 0 0 0 0 0 0 0 0 0 0 0 0 0 0 0 0 4 0 0 0 0 8 54 61 131 297 129 214 375 315 262 182 455 709 674 489 148
0 0 0 0 0 0 0 0 0 0 0 0 0 0 0 0 0 0 0 0 0 0 0 0 0 0 0 0 0 0 43 11 62 157 56 3 252 129 217 375 488 606 624 588 479
0 0 0 0 0 0 0 0 0 0 0 0 0 0 0 0 0 0 0 0 0 0 0 0 0 0 0 0 0 0 0 0 0 0 1 36 59 254 117 73 449 674 660 602 582
0 0 0 0 0 0 0 0 0 0 0 0 0 0 0 0 0 0 0 0 0 0 0 0 0 0 0 0 0 0 0 0 0 0 35 106 117 74 44 126 285 420 622 688 645
0 0 0 0 0 0 0 0 0 0 0 0 0 0 0 0 0 0 0 0 0 0 0 0 0 0 0 0 0 0 0 0 0 0 0 16 24 33 125 194 276 370 290 483 755
0 0 0 0 0 0 0 0 0 0 0 0 0 0 0 0 0 0 0 0 0 0 0 0 0 0 0 0 1 0 0 0 0 0 0 0 7 34 55 146 150 311 532 587 667
0 0 0 0 0 0 0 0 0 0 0 0 0 0 0 0 0 0 0 0 0 0 0 0 0 0 0 0 0 0 0 0 0 0 1 0 0 0 13 10 88 164 492 624 798
0 0 0 0 0 0 0 0 0 1 0 0 0 0 0 0 0 0 0 0 0 0 0 0 0 0 0 0 0 0 0 0 0 1 10 6 0 0 39 55 118 197 340 459 686
0 0 0 0 0 0 0 0 0 0 0 0 0 0 0 25 1 39 1 9 0 0 0 0 0 0 0 28 0 0 0 0 0 0 0 0 0 0 8 27 29 53 131 179 295
0 0 0 0 0 0 0 0 0 0 0 0 0 0 0 72 25 6 4 5 1 0 0 0 0 0 0 0 0 0 0 0 0 0 0 0 0 0 0 52 38 18 35 52 120
0 0 0 0 0 0 0 0 0 0 0 0 0 0 0 0 0 0 0 0 0 0 0 0 0 0 0 0 0 0 0 0 0 0 0 0 0 0 1 143 76 47 220 278 319
0 0 0 0 0 0 0 0 0 0 0 0 0 0 0 0 0 0 0 0 0 0 0 0 0 0 0 0 0 0 0 0 0 0 0 0 0 0 0 36 136 191 579 707 710
CIN
-0 -0 -0 -0 -0 -0 -0 -0 -0 -0 -0 -0 -0 -0 -0 -0 -0 -0 -0 -0 -0 -0 -127 -207 -71 -0 -115 -144 -176 -199 -51 -34 -33 -23 -25 -45 -42 -69 -87 -70 -66 -89 -157 -154 -88
-0 -0 -0 -0 -0 -0 -0 -0 -0 -0 -0 -0 -0 -0 -0 -0 -0 -0 -0 -0 -0 -272 -187 -180 -100 -32 -110 -164 -220 -152 -42 -38 -54 -53 -34 -31 -35 -57 -73 -74 -87 -94 -105 -125 -81
-0 -0 -0 -0 -0 -0 -0 -0 -0 -0 -0 -0 -0 -0 -0 -0 -0 -0 -0 -75 -308 -226 -152 -102 -103 -157 -88 -194 -217 -163 -53 -90 -84 -59 -36 -28 -30 -43 -46 -46 -75 -97 -121 -95 -114
-0 -0 -0 -0 -0 -0 -0 -0 -0 -0 -0 -0 -0 -0 -0 -0 -0 -0 -0 -326 -219 -248 -175 -105 -116 -101 -91 -89 -169 -83 -121 -140 -100 -78 -37 -28 -39 -40 -41 -36 -84 -158 -124 -102 -125
-0 -0 -0 -0 -0 -0 -0 -0 -0 -0 -0 -0 -0 -0 -0 -0 -0 -0 -0 -314 -263 -245 -144 -128 -106 -150 -68 -51 -195 -154 -139 -133 -120 -105 -62 -48 -36 -29 -56 -88 -162 -135 -83 -83 -94
-0 -0 -0 -0 -0 -0 -0 -0 -0 -0 -0 -0 -0 -0 -0 -0 -0 -158 -354 -269 -214 -216 -164 -180 -117 -178 -198 -174 -172 -178 -182 -139 -86 -66 -69 -39 -47 -34 -91 -116 -134 -96 -86 -67 -57
-0 -0 -0 -0 -0 -0 -0 -0 -0 -0 -0 -0 -0 -0 -0 -0 -177 -172 -0 -221 -227 -252 -202 -290 -252 -218 -150 -155 -203 -195 -127 -102 -73 -71 -65 -40 -31 -95 -99 -0 -5 -34 -62 -21 -39
-0 -0 -0 -0 -0 -0 -0 -0 -0 -0 -0 -0 -0 -0 -0 -0 -393 -365 -306 -232 -235 -273 -184 -174 -218 -201 -154 -179 -204 -116 -126 -43 -76 -57 -91 -68 -79 -143 -164 -0 -0 -1 -34 -41 -56
-0 -0 -0 -0 -0 -0 -0 -0 -0 -0 -0 -0 -0 -0 -0 -37 -0 -253 -214 -170 -257 -309 -258 -196 -144 -164 -246 -121 -0 -110 -31 -41 -50 -83 -70 -56 -42 -142 -205 -0 -0 -0 -48 -55 -38
-0 -0 -0 -0 -0 -0 -0 -0 -0 -0 -0 -0 -0 -0 -0 -0 -0 -198 -300 -0 -28 -0 -0 -38 -168 -129 -147 -85 -24 -0 -0 -0 -54 -80 -73 -63 -70 -129 -213 -0 -0 -0 -0 -41 -68
-0 -0 -0 -0 -0 -0 -0 -0 -0 -0 -0 -0 -0 -0 -0 -0 -0 -0 -0 -0 -141 -161 -96 -141 -89 -55 -68 -155 -201 -229 -0 -0 -0 -151 -81 -65 -85 -137 -183 -257 -0 -0 -0 -0 -40
-0 -0 -0 -0 -0 -0 -0 -0 -0 -0 -0 -0 -0 -0 -0 -0 -0 -0 -0 -15 -134 -67 -110 -116 -68 -108 -188 -217 -206 -268 -0 -0 -0 -206 -117 -101 -118 -143 -167 -199 -286 -0 -0 -0 -0
-0 -0 -0 -0 -0 -0 -0 -0 -0 -0 -0 -0 -0 -0 -0 -0 -0 -0 -0 -26 -62 -63 -102 -96 -88 -172 -229 -101 -0 -0 -0 -0 -0 -202 -173 -125 -128 -172 -177 -164 -229 -351 -0 -0 -0
-0 -0 -0 -0 -0 -0 -0 -0 -0 -0 -0 -0 -0 -0 -0 -0 -0 -0 -0 -109 -105 -84 -140 -167 -184 -0 -0 -0 -0 -0 -0 -0 -95 -106 -42 -144 -30 -150 -178 -180 -197 -208 -357 -0 -0
-0 -0 -0 -0 -0 -0 -0 -0 -0 -0 -0 -0 -0 -0 -0 -0 -0 -0 -281 -0 -0 -121 -12 -0 -0 -0 -0 -0 -0 -0 -0 -0 -173 -135 -101 -106 -64 -105 -223 -177 -196 -186 -210 -367 -0
-0 -0 -0 -0 -0 -0 -0 -0 -0 -0 -0 -0 -0 -0 -0 -0 -0 -0 -0 -0 -0 -0 -0 -0 -168 -0 -0 -0 -0 -227 -192 -198 -189 -120 -57 -131 -77 -68 -140 -133 -141 -170 -184 -219 -304
-0 -0 -0 -0 -0 -0 -0 -0 -0 -0 -0 -0 -0 -0 -0 -0 -0 -0 -0 -0 -0 -0 -0 -0 -0 -0 -0 -0 -0 -0 -85 -34 -18 -41 -42 -250 -122 -83 -173 -169 -132 -134 -159 -182 -212
-0 -0 -0 -0 -0 -0 -0 -0 -0 -0 -0 -0 -0 -0 -0 -0 -0 -0 -0 -0 -0 -0 -0 -0 -0 -0 -0 -0 -0 -0 -0 -0 -0 -0 -6 -312 -91 -62 -280 -383 -262 -166 -140 -161 -187
-0 -0 -0 -0 -0 -0 -0 -0 -0 -0 -0 -0 -0 -0 -0 -0 -0 -0 -0 -0 -0 -0 -0 -0 -0 -0 -0 -0 -0 -0 -0 -0 -0 -0 -46 -61 -97 -274 -405 -353 -340 -262 -169 -165 -170
-0 -0 -0 -0 -0 -0 -0 -0 -0 -0 -0 -0 -0 -0 -0 -0 -0 -0 -0 -0 -0 -0 -0 -0 -0 -0 -0 -0 -0 -0 -0 -4 -0 -0 -0 -54 -91 -70 -165 -224 -295 -249 -223 -156 -149
-0 -0 -0 -0 -0 -0 -0 -0 -0 -0 -0 -0 -0 -0 -0 -0 -0 -0 -0 -0 -0 -0 -0 -0 -0 -0 -0 -0 -42 -0 -0 -0 -4 -0 -0 -0 -34 -146 -151 -229 -210 -265 -251 -195 -189
-0 -0 -0 -0 -0 -0 -0 -0 -0 -0 -0 -0 -0 -0 -0 -0 -0 -0 -0 -0 -0 -0 -0 -0 -0 -0 -0 -0 -0 -0 -0 -0 -0 -0 -2 -0 -0 -0 -318 -331 -316 -327 -288 -270 -229
-0 -0 -0 -0 -0 -0 -0 -0 -0 -212 -0 -0 -0 -0 -0 -0 -5 -0 -0 -0 -0 -0 -0 -0 -0 -0 -0 -0 -0 -14 -0 -0 -0 -22 -68 -25 -0 -0 -398 -339 -370 -320 -313 -273 -266
-0 -0 -0 -0 -0 -0 -0 -0 -0 -0 -0 -0 -0 -0 -0 -165 -75 -132 -10 -227 -0 -0 -0 -0 -0 -0 -9 -16 -0 -0 -0 -0 -0 -0 -0 -0 -0 -0 -166 -306 -384 -407 -405 -330 -295
-0 -0 -0 -0 -0 -0 -0 -0 -0 -0 -0 -0 -0 -0 -0 -108 -136 -177 -235 -162 -89 -0 -0 -0 -0 -0 -0 -0 -0 -0 -0 -0 -0 -0 -0 -0 -0 -0 -0 -244 -342 -445 -451 -409 -313
-0 -0 -0 -0 -0 -0 -0 -0 -0 -0 -0 -0 -0 -0 -0 -0 -0 -0 -0 -0 -99 -3 -0 -0 -0 -0 -0 -0 -0 -0 -0 -0 -0 -0 -0 -0 -0 -0 -71 -346 -374 -400 -366 -345 -291
-0 -0 -0 -0 -0 -0 -0 -0 -0 -0 -0 -0 -0 -0 -0 -0 -0 -0 -0 -0 -0 -0 -0 -0 -0 -0 -0 -0 -0 -0 -0 -0 -0 -0 -0 -0 -0 -0 -0 -250 -326 -358 -287 -266 -276
Wind_Speed
26 25 22 19 16 14 13 12 13 15 21 21 20 19 18 17 16 17 16 17 22 25 23 20 12 7 8 13 9 10 8 7 10 10 10 13 8 9 12 16 9 10 13 16 21
26 25 23 19 17 14 13 13 12 14 5 20 21 20 18 16 16 18 17 21 23 27 25 25 7 22 7 9 9 9 9 10 11 13 13 19 14 13 11 15 10 11 11 19 19
27 25 24 21 17 15 13 13 13 13 9 17 21 20 18 16 16 15 22 22 25 27 25 24 24 20 21 14 9 10 11 11 12 12 15 14 10 11 15 18 15 16 18 21 21
29 26 25 23 18 14 13 13 13 11 13 17 20 19 17 16 13 13 26 25 26 27 27 24 19 14 14 15 9 9 13 14 13 10 10 9 8 12 13 17 14 14 18 20 23
31 27 26 25 20 15 13 14 14 12 14 17 20 19 16 13 13 16 26 27 28 29 26 25 23 16 9 16 15 13 13 13 16 15 9 7 10 11 14 13 12 14 18 19 23
32 29 26 26 21 16 14 14 14 13 14 18 20 19 15 11 14 22 24 27 27 25 22 22 18 14 12 14 14 12 13 12 11 18 9 8 10 12 11 17 17 19 20 19 22
32 30 26 25 21 15 14 15 15 15 15 19 20 19 15 12 14 17 22 25 27 16 22 18 16 15 11 13 15 13 10 7 6 5 7 8 11 10 9 23 21 22 25 26 28
31 30 27 27 22 13 14 15 15 17 16 19 20 18 15 16 4 11 18 7 25 19 15 16 14 14 13 12 12 11 10 9 10 8 8 12 14 9 22 23 22 23 25 28 31
31 29 27 26 16 9 14 16 16 19 10 16 19 19 15 13 16 2 7 18 23 22 20 17 15 14 12 11 11 10 11 10 11 13 10 12 16 20 22 22 22 23 26 28 27
31 29 26 21 17 12 11 19 20 21 16 18 21 20 16 17 13 7 8 16 22 21 20 18 16 14 13 11 12 13 13 13 11 10 12 12 15 20 21 21 21 23 24 26 26
31 28 25 21 18 16 16 18 18 18 23 24 23 19 14 12 12 16 18 21 19 19 17 16 15 16 14 14 15 16 16 16 15 12 11 13 16 19 21 20 20 22 23 25 27
30 28 24 21 19 13 14 16 16 8 16 23 26 24 18 19 13 8 10 22 21 19 17 16 16 15 14 13 13 16 15 14 11 11 12 13 13 15 19 20 20 21 22 25 27
31 28 24 21 16 12 15 17 14 14 11 19 23 26 23 22 22 19 19 26 24 23 22 21 18 15 14 12 11 14 14 15 14 12 13 12 14 11 17 20 20 20 21 22 25
31 27 23 19 12 10 15 16 16 18 14 15 20 21 21 21 24 23 19 19 25 24 24 22 18 17 13 12 12 12 14 15 13 13 15 13 18 11 13 19 21 19 20 22 24
30 26 22 19 13 9 12 14 12 15 10 16 14 18 20 21 17 21 30 26 30 27 24 23 21 20 19 16 13 17 15 14 13 13 16 14 17 16 11 13 21 21 22 22 22
28 25 22 13 19 19 18 15 14 11 11 15 11 17 19 21 20 16 23 26 23 28 28 28 26 24 21 18 19 13 14 15 15 15 17 16 15 16 11 16 18 18 20 22 23
27 24 21 15 12 17 17 9 11 10 10 17 18 14 22 21 18 20 19 24 28 23 25 24 28 9 6 11 12 10 10 16 17 15 17 18 15 14 12 12 16 18 20 20 19
25 21 3 20 20 18 15 9 9 11 19 10 12 11 18 20 21 19 20 27 27 25 25 20 16 14 12 13 12 6 13 15 15 15 16 16 18 17 10 16 15 16 16 17 18
21 11 9 16 26 19 12 7 9 7 11 15 10 15 5 20 21 20 25 31 29 20 19 17 19 16 15 16 11 10 12 15 13 16 16 15 18 7 11 12 8 8 9 12 15
12 8 13 17 17 18 10 11 11 13 14 12 7 17 17 17 17 19 21 22 29 22 29 15 17 16 14 12 13 14 9 14 14 16 15 21 15 10 18 11 7 4 5 10 17
12 9 13 6 15 17 5 10 17 17 15 11 10 11 10 10 16 15 17 17 17 17 17 15 16 16 21 18 13 10 11 16 16 21 18 21 10 8 2 9 8 7 5 9 15
12 10 12 16 9 15 9 14 18 18 16 15 15 12 12 9 6 17 21 18 15 7 8 24 18 19 22 21 16 13 11 9 11 10 8 8 15 13 9 14 11 8 5 6 11
12 10 12 15 9 10 12 13 18 18 17 16 15 14 15 13 10 10 15 19 19 13 12 6 15 25 22 18 8 7 9 13 15 15 9 13 21 19 15 15 13 9 7 9 9
12 10 10 10 12 12 12 16 17 17 16 17 18 16 15 14 15 12 12 15 18 17 19 6 19 18 19 18 11 11 11 13 18 16 13 11 11 14 10 11 11 10 10 11 11
14 11 11 11 11 11 14 16 18 19 19 18 17 17 19 17 15 15 17 16 13 16 15 11 19 14 15 14 13 14 17 14 13 20 19 21 16 13 9 10 11 12 12 11 18
14 12 12 13 16 14 17 16 19 21 21 20 19 22 18 16 17 20 21 17 15 19 16 14 19 11 21 19 20 21 18 18 18 18 18 20 20 12 14 12 12 12 13 14 21
16 14 13 16 15 15 17 18 19 20 15 16 23 23 22 22 27 29 27 26 22 21 19 18 20 17 19 20 18 24 11 11 15 12 16 11 15 11 12 8 10 11 12 12 16
Wind_Direction
40 39 45 54 63 74 77 102 137 149 190 237 237 231 230 231 230 190 177 175 145 121 102 61 347 357 260 248 281 273 320 294 337 310 274 64 1 326 13 76 22 340 77 105 118
38 38 41 50 58 69 79 80 108 130 350 248 233 231 233 243 226 203 190 143 132 122 113 91 47 100 246 244 266 292 296 319 289 244 228 113 68 48 16 73 16 21 55 111 120
35 36 37 43 52 67 79 87 91 105 333 259 231 231 233 241 221 205 138 126 122 128 122 117 112 139 165 204 276 308 355 253 225 254 218 74 23 297 77 134 112 104 105 119 127
25 34 34 35 49 69 88 87 82 65 296 257 232 229 235 236 248 247 123 111 122 133 152 129 165 170 178 194 254 231 200 200 209 241 245 14 10 314 172 210 110 108 117 121 132
12 29 31 28 46 71 101 86 73 39 280 251 230 228 238 246 241 196 120 116 118 146 161 152 159 178 205 175 193 202 204 204 200 198 238 302 293 298 265 272 80 100 121 124 130
356 19 29 27 43 69 90 88 87 75 269 241 228 226 241 248 248 114 115 119 135 164 181 180 178 188 196 193 195 209 208 205 217 187 241 313 296 237 286 61 82 111 127 127 133
349 6 25 27 40 74 87 92 99 106 257 233 226 226 240 249 238 96 113 134 167 201 190 198 201 199 215 212 203 207 220 236 269 297 295 347 326 321 173 89 95 116 126 134 139
342 349 14 10 32 90 93 95 103 125 241 228 224 227 237 244 16 109 110 52 201 211 211 203 201 216 219 234 227 236 255 309 258 280 270 224 349 284 118 94 100 119 129 140 146
340 338 351 346 315 156 110 106 119 122 261 231 225 228 237 243 227 26 97 233 218 220 226 230 210 217 228 244 249 274 332 295 271 257 323 278 6 96 124 112 101 119 135 145 146
341 335 326 305 288 249 196 74 72 97 216 223 222 226 240 234 240 273 279 227 203 198 207 212 220 239 253 264 270 264 267 278 318 7 305 301 8 98 137 126 115 120 136 146 150
336 326 312 293 286 267 57 66 74 80 161 191 221 233 240 241 246 232 120 216 219 210 216 232 243 227 242 259 255 259 256 253 266 329 7 13 60 99 133 130 115 132 142 153 158
323 320 302 284 265 185 88 81 109 58 98 201 213 232 239 231 245 260 96 210 209 216 237 240 234 239 222 220 231 218 237 261 350 4 29 28 38 84 128 143 141 136 142 154 161
321 317 299 286 291 58 107 131 206 220 107 230 223 220 229 231 234 146 128 196 211 213 222 227 215 227 191 195 202 180 155 74 14 23 329 21 344 70 149 183 160 153 154 151 158
319 310 293 282 7 359 116 237 216 192 62 112 225 229 234 235 235 235 147 246 212 205 203 209 213 205 215 241 226 261 305 28 59 56 1 355 344 27 126 160 172 151 149 153 158
308 296 278 273 295 337 276 245 259 219 342 98 237 232 236 235 243 241 222 233 208 214 218 222 232 234 241 239 236 282 330 0 44 31 358 1 339 344 107 144 173 164 162 156 153
296 285 271 306 248 235 225 236 245 353 358 94 257 240 236 239 244 251 238 239 251 237 229 228 242 240 225 307 295 27 10 3 3 3 344 342 344 347 8 167 157 152 156 158 158
286 270 260 269 272 232 229 293 328 351 26 99 119 253 231 235 248 244 246 240 235 244 246 256 231 330 38 354 2 5 25 352 350 355 354 344 357 286 107 89 141 147 150 150 148
282 264 110 243 233 226 235 312 322 272 167 356 289 265 238 235 242 247 249 238 239 246 255 266 282 304 339 327 338 65 343 337 340 348 359 346 4 327 279 155 117 132 139 141 149
279 344 312 252 219 233 256 322 300 332 317 213 40 105 287 243 243 250 247 240 244 253 259 272 271 298 323 305 315 334 329 303 341 349 350 281 278 202 164 41 55 83 122 144 149
1 344 279 254 234 229 265 282 279 275 293 21 173 109 123 262 261 255 253 255 242 230 225 270 273 290 299 306 310 302 15 320 326 343 337 280 225 192 353 24 46 72 136 152 153
23 1 280 256 238 241 271 281 262 268 288 325 357 26 37 320 257 261 254 250 238 240 237 260 282 274 264 270 304 360 353 329 325 275 335 325 36 59 22 62 32 1 97 146 150
360 8 275 253 264 258 275 275 269 274 287 293 295 318 334 344 35 256 243 249 248 277 261 245 274 281 270 287 311 342 359 33 13 16 34 102 232 41 98 13 14 19 43 125 141
341 346 282 256 274 268 277 288 274 272 281 284 295 299 293 310 314 306 278 260 249 279 286 280 283 267 279 302 343 3 355 355 340 337 62 7 304 343 28 30 45 70 79 125 135
17 330 294 293 274 272 274 276 273 279 285 285 286 294 297 299 285 307 302 272 264 282 270 295 273 276 283 296 316 323 334 344 312 326 343 191 192 24 67 55 62 77 88 113 141
326 327 288 291 290 293 283 282 274 274 283 296 286 292 282 286 292 290 288 283 294 294 299 288 287 284 289 303 318 320 313 325 326 310 309 309 292 18 73 78 72 79 78 96 150
40 328 309 300 282 291 287 289 284 283 284 282 283 280 297 290 293 279 282 291 298 297 299 290 293 299 273 287 296 300 310 316 309 311 306 310 313 16 25 69 78 89 86 82 127
336 352 328 297 298 298 295 290 290 292 302 306 286 283 285 289 284 271 275 279 288 295 298 296 288 287 286 288 300 298 317 319 312 317 307 318 322 353 7 66 95 91 94 84 114